This demonstration page uses our WeatherBlox Daily Observations layout. Learn more.

Left ArrowRight Arrow

34.16533, -84.80231

Hourly Observations for March 11, 2017

Temp ( °F °C ) Dew Point ( °F °C ) Humidity (%) Winds ( mph kmh ) Pressure ( in mb ) Visibility ( mi km ) Precip ( " mm )
12:53 am 00:53 Clear 44 6.7 23 -5 43 43 undefined N/A 30.21 1023 10 16 0.00 0.00
1:53 am 01:53 Clear 42 5.6 23 -5 47 47 undefined N/A 30.21 1023 10 16 0.00 0.00
2:53 am 02:53 Clear 39 3.9 25 -3.9 57 57 undefined N/A 30.22 1024 10 16 0.00 0.00
3:53 am 03:53 Clear 40 4.4 23 -5 51 51 undefined N/A 30.22 1024 10 16 0.00 0.00
4:53 am 04:53 Clear 39 3.9 23 -5 53 53 undefined N/A 30.23 1024 10 16 0.00 0.00
5:53 am 05:53 Clear 36 2.2 26 -3.3 67 67 undefined N/A 30.25 1024 10 16 0.00 0.00
6:53 am 06:53 Clear 36 2.2 24 -4.4 62 62 undefined N/A 30.27 1025 10 16 0.00 0.00
7:53 am 07:53 Sunny 39 3.9 24 -4.4 55 55 undefined N/A 30.29 1026 10 16 0.00 0.00
8:53 am 08:53 Mostly Cloudy 41 5 24 -4.4 51 51 undefined N/A 30.30 1026 10 16 0.00 0.00
9:53 am 09:53 Cloudy 44 6.7 24 -4.4 45 45 undefined N/A 30.31 1026 10 16 0.00 0.00
10:53 am 10:53 Cloudy 48 8.9 21 -6.1 34 34 undefined N/A 30.32 1027 10 16 0.00 0.00
11:53 am 11:53 Cloudy 49 9.4 20 -6.7 32 32 undefined N/A 30.31 1026 10 16 0.00 0.00
12:53 pm 12:53 Cloudy 49 9.4 22 -5.6 35 35 undefined N/A 30.29 1026 10 16 0.00 0.00
1:53 pm 13:53 Cloudy 48 8.9 25 -3.9 41 41 undefined N/A 30.25 1024 10 16 0.01 0.25
2:53 pm 14:53 Cloudy 49 9.4 25 -3.9 39 39 undefined N/A 30.27 1025 10 16 0.00 0.00
3:53 pm 15:53 Cloudy 44 6.7 28 -2.2 53 53 undefined N/A 30.24 1024 10 16 0.00 0.03
4:53 pm 16:53 Cloudy 43 6.1 28 -2.2 56 56 undefined N/A 30.25 1025 10 16 0.00 0.03
5:53 pm 17:53 Cloudy 43 6.1 28 -2.2 56 56 undefined N/A 30.25 1024 10 16 0.00 0.00
6:53 pm 18:53 Cloudy 42 5.6 28 -2.2 58 58 undefined N/A 30.23 1024 10 16 0.00 0.00
7:53 pm 19:53 Cloudy 41 5 29 -1.7 62 62 undefined N/A 30.24 1024 10 16 0.00 0.00
8:53 pm 20:53 Cloudy 39 3.9 31 -0.6 73 73 undefined N/A 30.26 1025 10 16 0.00 0.00
9:53 pm 21:53 Cloudy with Light Rain 38 3.3 32 0 79 79 undefined N/A 30.27 1025 10 16 0.00 0.03
10:53 pm 22:53 Cloudy 37 2.8 31 -0.6 79 79 undefined N/A 30.25 1025 10 16 0.00 0.03
11:53 pm 23:53 Cloudy 37 2.8 32 0 82 82 undefined N/A 30.24 1024 10 16 0.00 0.03

Powered by AerisWeather